Torna al catalogo

STARLINK-30259

AttivoComunicazioniVLEO
NORAD 57521·PAYLOAD·🇺🇸 United States

Lanciato Aug 8, 2023 da Vandenberg Space Force Base

Loading…

Prossimi Passaggi (prossime 24 ore)

TLE

AggiornatoSource: CelesTrak SupGP

Epoca: Sep 15, 2026, 01:33 UTC

1 57521C 23115A   26258.06506944 -.00044777  00000+0 -16224-2 0  2584
2 57521  43.0015  12.1492 0001698 255.9822  92.1155 15.27589020    14

Traccia STARLINK-30259 in tempo reale con AllMySat

Download on the App Store